Location: Asheville, NC
(35.6000°N, 82.5500°W)
Time: 07:35:04
(UTC-05:00)

Tiangong 1 - Pass Details

Date: 13 October 2017
Orbit: 274 x 300 km, 42.8° (Epoch: 18 December)

Event Time Altitude Azimuth Distance (km) Brightness Sun altitude
Rises 19:40:03 0° 300° (WNW) 2,082 5.8 -9.5°
Reaches altitude 10° 19:42:19 10° 316° (NW) 1,233 4.2 -10.0°
Maximum altitude 19:44:36 23° 12° (NNE) 736 2.3 -10.5°
Enters shadow 19:46:04 15° 56° (NE) 960 2.6 -10.8°
